Home > Weather > Abilene > Past weeks

Flag for USA Weather for the Past 2 Weeks in Abilene, Texas, USA

Now
57 °F

Clear.


Feels Like: 55 °F
Forecast: 59 / 83 °F
Wind: 9 mph from Southeast

Location: Abilene Regional Airport

Current Time: May 6, 2016 at 6:25:54 AM

Latest Report: May 6, 2016 at 5:52 AM


Visibility: 10 mi

Pressure: 29.99 "Hg (28.17 "Hg at 524m altitude)

Humidity: 83%

Dew Point: 52 °F

Location of AbileneLocation

Historic Weather in Abilene — Graph

°F

Abilene Temperature Yesterday

Maximum temperature yesterday: 84 °F (at 3:52 PM)
Minimum temperature yesterday: 53 °F (at 2:52 AM)
Average temperature yesterday: 69 °F

High & Low Weather Summary for the Past Weeks

 TemperatureHumidityPressure
High88 °F (Apr 25, 4:52 PM)100% (Apr 21, 4:52 AM)30.22 "Hg (Apr 21, 4:52 AM)
Low47 °F (May 3, 4:52 AM)22% (Apr 29, 9:52 PM)29.45 "Hg (Apr 26, 5:52 PM)
Average66 °F65%29.87 "Hg
* Reported Apr 21 4:52 AM — May 6 4:52 AM, Abilene, Weather by CustomWeather, © 2016

Note: Actual official high and low records may vary slightly from our data, if they occured in-between our weather recording intervals... More about our weather records

Advertising

Abilene Weather History for the Previous 24 Hours

Scroll right to see more
 ConditionsComfort  
Time TempWeatherWind HumidityBarometerVisibility
4:52 AM
Fri, May 6
59 °FClear.6 mph81%29.98 "Hg10 mi
3:52 AM61 °FClear.10 mph75%29.98 "Hg10 mi
2:52 AM61 °FClear.8 mph78%29.98 "Hg10 mi
1:52 AM61 °FClear.9 mph81%30.00 "Hg10 mi
12:52 AM63 °FClear.8 mph75%30.00 "Hg10 mi
11:52 PM
Thu, May 5
63 °FClear.7 mph75%30.00 "Hg10 mi
10:52 PM65 °FClear.8 mph70%30.01 "Hg10 mi
9:52 PM68 °FClear.9 mph65%30.00 "Hg10 mi
8:52 PM71 °FSunny.8 mph57%29.98 "Hg10 mi
7:52 PM77 °FSunny.7 mph44%29.97 "Hg10 mi
6:52 PM82 °FSunny.8 mph29%29.96 "Hg10 mi
5:52 PM83 °FSunny.6 mph30%29.96 "Hg10 mi
4:52 PM83 °FSunny.8 mph28%29.97 "Hg10 mi
3:52 PM84 °FSunny.3 mph31%29.99 "Hg10 mi
2:52 PM83 °FSunny.5 mph30%30.02 "Hg10 mi
1:52 PM81 °FSunny.3 mph30%30.04 "Hg10 mi
12:52 PM81 °FSunny.No wind27%30.07 "Hg10 mi
11:52 AM80 °FSunny.No wind39%30.08 "Hg10 mi
10:52 AM76 °FSunny.No wind42%30.08 "Hg10 mi
9:52 AM71 °FSunny.5 mph47%30.08 "Hg10 mi
8:52 AM65 °FSunny.5 mph56%30.08 "Hg10 mi
7:52 AM59 °FSunny.No wind72%30.05 "Hg10 mi
6:52 AM57 °FClear.No wind64%30.03 "Hg10 mi
Weather by CustomWeather, © 2016

See weather overviewHow to use our weather pages